Weather History for Ellensburg, WA

Change the Weather History Date:

Tuesday, February 12, 2013

  Actual Average (KYKM) Record (KYKM)
Temperature  
Mean Temperature 47 °F 36 °F  
Max Temperature 52 °F 45 °F 67 °F (1977)
Min Temperature 42 °F 26 °F 3 °F (1949)
Degree Days  
Heating Degree Days 18 30  
Month to date heating degree days 365  
Since 1 July heating degree days 4083  
Cooling Degree Days 0 0  
Month to date cooling degree days 0  
Year to date cooling degree days 0  
Moisture  
Dew Point 33 °F    
Average Humidity 60    
Maximum Humidity 68    
Minimum Humidity 50    
Precipitation  
Precipitation 0.00 in 0.03 in 0.22 in (1979)
Month to date precipitation 0.35  
Year to date precipitation 1.49  
Snow  
Snow 0.00 in 0.10 in 1.50 in (1950)
Month to date snowfall 1.3  
Year to date snowfall 6.6  
Since 1 July snowfall 19.6  
Snow Depth -    
Sea Level Pressure  
Sea Level Pressure 30.25 in    
Wind  
Wind Speed 17 mph (WNW)    
Max Wind Speed 24 mph    
Max Gust Speed 31 mph    
Visibility 10 miles    
Events      
T = Trace of Precipitation, MM = Missing Value Source: NWS Daily Summary

Daily Weather History Graph

Daily Weather History Graph

Search for Another Location

Airport:

Trip Planner

Search our weather history database for the weather conditions in past years. The results will help you decide how hot, cold, wet, or windy it might be!

Date:

Astronomy

Feb. 12, 2013 Rise Set
Actual Time 7:10 AM PST 5:22 PM PST
Civil Twilight 6:39 AM PST 5:54 PM PST
Nautical Twilight 6:03 AM PST 6:29 PM PST
Astronomical Twilight 5:28 AM PST 7:05 PM PST
Moon 7:56 AM PST (2/12) 8:45 PM PST (2/12)
Length of Visible Light 11h 14m
Length of Day
10h 11m
Waxing Crescent, 8% of the Moon is Illuminated
Feb 12
Waxing Crescent
Feb 17
First Quarter
Feb 25
Full
Mar 4
Last Quarter
Mar 11
New

Hourly Weather History & Observations

Time (PST) Temp. Windchill Dew Point Humidity Pressure Visibility Wind Dir Wind Speed Gust Speed Precip Events Conditions
12:53 AM 43.0 °F 34.2 °F 30.9 °F 62% 30.23 in 10.0 mi WNW 20.7 mph 28.8 mph N/A   Clear
1:53 AM 42.1 °F 34.2 °F 30.9 °F 65% 30.23 in 10.0 mi WNW 16.1 mph - N/A   Mostly Cloudy
2:53 AM 42.1 °F 35.2 °F 30.9 °F 65% 30.24 in 10.0 mi WNW 12.7 mph 21.9 mph N/A   Clear
3:53 AM 42.1 °F 35.2 °F 30.9 °F 65% 30.24 in 10.0 mi WNW 12.7 mph - N/A   Clear
4:53 AM 44.1 °F 35.9 °F 28.9 °F 55% 30.26 in 10.0 mi WNW 19.6 mph 26.5 mph N/A   Clear
5:53 AM 44.1 °F 35.2 °F 30.9 °F 60% 30.26 in 10.0 mi West 23.0 mph 26.5 mph N/A   Clear
6:53 AM 44.1 °F 35.7 °F 30.9 °F 60% 30.27 in 10.0 mi WNW 20.7 mph 26.5 mph N/A   Partly Cloudy
7:53 AM 44.1 °F 36.5 °F 30.9 °F 60% 30.28 in 10.0 mi WNW 17.3 mph - N/A   Partly Cloudy
8:53 AM 44.1 °F 36.5 °F 30.9 °F 60% 30.29 in 10.0 mi WNW 17.3 mph 25.3 mph N/A   Clear
9:53 AM 46.0 °F 37.6 °F 30.0 °F 54% 30.30 in 10.0 mi WNW 24.2 mph 29.9 mph N/A   Clear
10:53 AM 46.9 °F - 30.0 °F 52% 30.30 in 10.0 mi WNW 18.4 mph 25.3 mph N/A   Clear
11:53 AM 50.0 °F - 32.0 °F 50% 30.29 in 10.0 mi WNW 23.0 mph 31.1 mph N/A   Clear
12:53 PM 52.0 °F - 35.1 °F 53% 30.28 in 10.0 mi NW 21.9 mph 27.6 mph N/A   Partly Cloudy
1:53 PM 51.1 °F - 35.1 °F 54% 30.26 in 10.0 mi NW 24.2 mph 28.8 mph N/A   Overcast
2:53 PM 51.1 °F - 35.1 °F 54% 30.26 in 10.0 mi NW 18.4 mph - N/A   Overcast
3:53 PM 52.0 °F - 34.0 °F 50% 30.26 in 10.0 mi NW 18.4 mph 25.3 mph N/A   Mostly Cloudy
4:53 PM 50.0 °F - 33.1 °F 52% 30.25 in 10.0 mi NNW 12.7 mph - N/A   Mostly Cloudy
5:53 PM 45.0 °F 39.3 °F 32.0 °F 60% 30.25 in 10.0 mi NW 11.5 mph - N/A   Clear
6:53 PM 43.0 °F 38.2 °F 33.1 °F 68% 30.24 in 10.0 mi West 8.1 mph - N/A   Scattered Clouds
7:53 PM 46.0 °F 39.3 °F 35.1 °F 66% 30.22 in 10.0 mi NW 16.1 mph - N/A   Overcast
8:53 PM 46.9 °F - 35.1 °F 63% 30.22 in 10.0 mi NW 11.5 mph - N/A   Overcast
9:53 PM 45.0 °F 41.2 °F 34.0 °F 65% 30.21 in 10.0 mi WNW 6.9 mph - N/A   Overcast
10:53 PM 45.0 °F 42.6 °F 35.1 °F 68% 30.21 in 10.0 mi West 4.6 mph - N/A   Mostly Cloudy
11:53 PM 45.0 °F 42.6 °F 35.1 °F 68% 30.20 in 10.0 mi West 4.6 mph - N/A   Overcast